Regional Weather Roundup
Issued by NWS Burlington, VT

Current Version | Previous Version | Text Only | Print | Product List | Glossary On
Versions: 1 2 3 4 5 6 7 8 9 10 11 12 13 14 15 16 17 18 19 20 21 22 23 24 25 26 27 28 29 30 31 32 33 34 35 36 37 38 39 40 41 42 43 44 45 46 47 48 49 50
000 ASUS41 KBTV 062110 RWRBTV VERMONT REGIONAL WEATHER ROUNDUP NATIONAL WEATHER SERVICE BURLINGTON VT 500 PM EDT FRI MAY 06 2016 NOTE: "FAIR" INDICATES FEW OR NO CLOUDS BELOW 12,000 FEET WITH NO SIGNIFICANT WEATHER AND/OR OBSTRUCTIONS TO VISIBILITY. * THESE REPORTS ARE NOT UNDER NWS QUALITY CONTROL AND/OR DO NOT REPORT WEATHER SUCH AS PRECIPITATION AND FOG. VTZ001>019-062200- _____VERMONT_____ CITY SKY/WX TMP DP RH WIND PRES REMARKS BURLINGTON FAIR 68 39 34 NW17 29.80F MONTPELIER PTSUNNY 71 43 36 VRB7 29.83F MORRISVILLE FAIR 71 43 36 NE8 29.81F ST. JOHNSBURY* N/A 76 45 33 MISG 29.77F LYNDONVILLE* PTSUNNY 71 41 34 SE6 29.82S MIDDLEBURY* CLOUDY 63 43 48 N8 29.80S RUTLAND* CLOUDY 63 46 54 N8 29.80S SPRINGFIELD LGT RAIN 64 48 56 E5 29.81R HIGHGATE* FAIR 69 43 38 N12 29.81F NEWPORT* FAIR 66 45 46 N10 29.83S BENNINGTON LGT RAIN 61 52 72 SE10 29.78R SUTTON* N/A 70 N/A N/A MISG N/A _____LAKE CHAMPLAIN_____ CITY SKY/WX TMP DP RH WIND PRES REMARKS COLCHESTER RF* N/A 59 41 51 N15 N/A DIAMOND ISL* N/A 63 39 42 N22 N/A $$ NYZ007-026>031-035-052-083-087-062200- _____NORTHERN NEW YORK_____ CITY SKY/WX TMP DP RH WIND PRES REMARKS PLATTSBURGH MOSUNNY 67 40 37 N14 29.81F SARANAC LAKE CLOUDY 61 37 41 E10 29.81F MASSENA SUNNY 69 28 21 NE14 29.83F OGDENSBURG* SUNNY 68 30 24 E10G22 29.81S POTSDAM* SUNNY 66 41 39 NE10 29.80 WATERTOWN PTSUNNY 63 35 35 N12 29.79S FT DRUM CLOUDY 63 38 39 N15 29.78F ALBANY LGT RAIN 58 53 84 S3 29.78R GLENS FALLS CLOUDY 65 44 46 NE13 29.78R $$ NHZ002-005-011-062200- _____NEW HAMPSHIRE_____ CITY SKY/WX TMP DP RH WIND PRES REMARKS LEBANON CLOUDY 69 47 45 VRB5 29.80R KEENE CLOUDY 64 48 55 E7 29.81S MT WASHINGTON PTSUNNY 45 41 87 E5 N/A PLYMOUTH CLOUDY 67 47 48 E7 29.82R WHITEFIELD CLOUDY 72 45 37 E7 29.80R $$ _____REGIONAL QUEBEC LOCATIONS_____ CITY SKY/WX TMP DP RH WIND PRES REMARKS MONTREAL MOSUNNY 68 36 30 NE15 29.82F QUEBEC CITY MOSUNNY 61 36 39 E9 29.88F SHERBROOKE SUNNY 70 39 32 NE8 29.82F _____REGIONAL ONTARIO LOCATIONS_____ CITY SKY/WX TMP DP RH WIND PRES REMARKS OTTAWA PTSUNNY 70 36 28 NE10 29.82F ______KEY______ VSB - VISIBILITY IN MILES WCI - WIND CHILL INDEX HX - HEAT INDEX $$ NNNN

USA.gov is the U.S. government's official web portal to all federal, state and local government web resources and services.